Weather History for KAHQ - December, 2012

Change the Weather History Date:

Saturday, December 22, 2012

  Actual Average Record
Temperature  
Mean Temperature 21 °F -  
Max Temperature 32 °F 32 °F 54 °F (1964)
Min Temperature 10 °F 14 °F -23 °F (1989)
Degree Days  
Heating Degree Days 44    
Moisture  
Dew Point 16 °F    
Average Humidity 87    
Maximum Humidity 93    
Minimum Humidity 76    
Precipitation  
Precipitation 0.00 in - - ()
Sea Level Pressure  
Sea Level Pressure 30.01 in    
Wind  
Wind Speed 6 mph (South)    
Max Wind Speed 17 mph    
Max Gust Speed -    
Visibility 9 miles    
Events      
Averages and records for this station are not official NWS values.
T = Trace of Precipitation, MM = Missing Value Source: NWS Daily Summary

Daily Weather History Graph

Daily Weather History Graph

Search for Another Location

Airport or City:

Trip Planner

Search our weather history database for the weather conditions in past years. The results will help you decide how hot, cold, wet, or windy it might be!

Date:

Astronomy

Dec. 22, 2012 Rise Set
Actual Time 7:49 AM CST 5:01 PM CST
Civil Twilight 7:18 AM CST 5:32 PM CST
Nautical Twilight 6:43 AM CST 6:07 PM CST
Astronomical Twilight 6:09 AM CST 6:41 PM CST
Moon 1:21 PM CST (12/22) 2:33 AM CST (12/22)
Length of Visible Light 10h 14m
Length of Day
9h 11m
Waxing Gibbous, 74% of the Moon is Illuminated
Dec 22
Waxing Gibbous
Dec 28
Full
Jan 4
Last Quarter
Jan 11
New
Jan 18
First Quarter

Hourly Weather History & Observations

Time (CST) Temp. Windchill Dew Point Humidity Pressure Visibility Wind Dir Wind Speed Gust Speed Precip Events Conditions
12:15 AM 14.2 °F 3.1 °F 11.8 °F 90% 30.13 in 10.0 mi South 8.1 mph - N/A   Clear
12:35 AM 15.1 °F 6.4 °F 12.9 °F 91% 30.13 in 10.0 mi South 5.8 mph - N/A   Clear
12:55 AM 14.5 °F 7.1 °F 12.2 °F 90% 30.13 in 10.0 mi South 4.6 mph - N/A   Clear
1:15 AM 13.8 °F 8.0 °F 11.5 °F 90% 30.12 in 10.0 mi SSE 3.5 mph - N/A   Clear
1:35 AM 12.4 °F 3.1 °F 10.2 °F 91% 30.11 in 7.0 mi SSE 5.8 mph - N/A   Clear
1:55 AM 11.5 °F 3.5 °F 9.0 °F 90% 30.10 in 10.0 mi SSE 4.6 mph - N/A   Clear
2:15 AM 12.0 °F 4.1 °F 9.7 °F 90% 30.10 in 10.0 mi SSE 4.6 mph - N/A   Clear
2:35 AM 12.9 °F 5.2 °F 10.4 °F 90% 30.10 in 10.0 mi SSE 4.6 mph - N/A   Clear
2:55 AM 13.6 °F 6.0 °F 11.3 °F 90% 30.10 in 10.0 mi SSE 4.6 mph - N/A   Clear
3:15 AM 14.9 °F 9.2 °F 13.1 °F 93% 30.09 in 10.0 mi South 3.5 mph - N/A   Clear
3:35 AM 13.8 °F 8.0 °F 11.7 °F 91% 30.09 in 7.0 mi South 3.5 mph - N/A   Clear
3:55 AM 13.5 °F 4.4 °F 10.9 °F 90% 30.07 in 5.0 mi SSE 5.8 mph - N/A   Clear
4:15 AM 12.7 °F 2.4 °F 10.6 °F 91% 30.07 in 5.0 mi South 6.9 mph - N/A   Clear
4:35 AM 12.6 °F 4.8 °F 10.0 °F 90% 30.06 in 7.0 mi SSE 4.6 mph - N/A   Clear
4:55 AM 13.1 °F 4.0 °F 10.6 °F 90% 30.05 in 5.0 mi SSE 5.8 mph - N/A   Clear
5:15 AM 12.7 °F 1.4 °F 10.4 °F 90% 30.04 in 5.0 mi SSE 8.1 mph - N/A   Clear
5:35 AM 12.0 °F 1.5 °F 9.3 °F 89% 30.03 in 7.0 mi SSE 6.9 mph - N/A   Clear
5:55 AM 11.3 °F 0.7 °F 8.8 °F 90% 30.03 in 7.0 mi South 6.9 mph - N/A   Clear
6:15 AM 11.5 °F 0.9 °F 8.8 °F 89% 30.02 in 7.0 mi SSE 6.9 mph - N/A   Clear
6:35 AM 10.6 °F 1.0 °F 7.7 °F 88% 30.03 in 7.0 mi South 5.8 mph - N/A   Clear
6:55 AM 12.2 °F 4.3 °F 9.9 °F 90% 30.04 in 7.0 mi South 4.6 mph - N/A   Clear
7:15 AM 10.8 °F 2.7 °F 8.1 °F 89% 30.04 in 7.0 mi SSW 4.6 mph - N/A   Clear
7:35 AM 12.0 °F 4.1 °F 9.5 °F 90% 30.02 in 10.0 mi SE 4.6 mph - N/A   Clear
7:55 AM 10.2 °F -0.6 °F 7.5 °F 89% 30.01 in 7.0 mi SE 6.9 mph - N/A   Clear
8:15 AM 10.9 °F 2.9 °F 8.2 °F 89% 30.00 in 10.0 mi ESE 4.6 mph - N/A   Clear
8:35 AM 12.6 °F 6.5 °F 10.2 °F 90% 30.00 in 10.0 mi SE 3.5 mph - N/A   Clear
8:55 AM 13.5 °F 3.3 °F 10.9 °F 90% 29.99 in 10.0 mi SE 6.9 mph - N/A   Clear
9:15 AM 14.0 °F 3.9 °F 11.5 °F 90% 29.99 in 10.0 mi SE 6.9 mph - N/A   Clear
9:35 AM 15.8 °F 10.2 °F 13.8 °F 92% 30.00 in 10.0 mi ESE 3.5 mph - N/A   Clear
9:55 AM 16.9 °F 9.8 °F 14.7 °F 91% 30.00 in 10.0 mi ESE 4.6 mph - N/A   Clear
10:15 AM 18.3 °F 9.1 °F 16.5 °F 93% 30.00 in 10.0 mi SE 6.9 mph - N/A   Clear
10:35 AM 19.9 °F 12.1 °F 18.1 °F 93% 29.99 in 10.0 mi SSE 5.8 mph - N/A   Clear
10:55 AM 20.1 °F 12.3 °F 18.1 °F 92% 29.98 in 10.0 mi South 5.8 mph - N/A   Clear
11:15 AM 20.5 °F 15.6 °F 18.5 °F 92% 29.97 in 10.0 mi South 3.5 mph - N/A   Clear
11:35 AM 22.5 °F 17.8 °F 20.7 °F 93% 29.96 in 10.0 mi SSE 3.5 mph - N/A   Clear
11:55 AM 23.7 °F 16.6 °F 21.9 °F 93% 29.95 in 10.0 mi South 5.8 mph - N/A   Clear
12:15 PM 25.3 °F - 23.5 °F 93% 29.96 in 10.0 mi Calm Calm - N/A   Clear
12:35 PM 29.7 °F - 24.8 °F 82% 29.95 in 10.0 mi Calm Calm - N/A   Clear
12:55 PM 31.5 °F - 25.2 °F 78% 29.94 in 10.0 mi Calm Calm - N/A   Clear
1:15 PM 32.2 °F 28.9 °F 25.3 °F 76% 29.93 in 10.0 mi WNW 3.5 mph - N/A   Clear
1:35 PM 32.2 °F 27.7 °F 25.3 °F 76% 29.92 in 10.0 mi North 4.6 mph - N/A   Clear
1:55 PM 30.9 °F - 25.5 °F 80% 29.92 in 10.0 mi Calm Calm - N/A   Clear
2:15 PM 30.4 °F - 24.6 °F 79% 29.92 in 10.0 mi Calm Calm - N/A   Clear
2:35 PM 30.4 °F - 24.8 °F 80% 29.92 in 10.0 mi Calm Calm - N/A   Clear
2:55 PM 30.2 °F 24.3 °F 24.6 °F 80% 29.92 in 10.0 mi North 5.8 mph - N/A   Clear
3:15 PM 30.6 °F 24.7 °F 23.9 °F 76% 29.92 in 10.0 mi NNW 5.8 mph - N/A   Clear
3:35 PM 29.7 °F 24.7 °F 23.4 °F 77% 29.93 in 10.0 mi NW 4.6 mph - N/A   Clear
3:55 PM 30.0 °F 25.2 °F 23.7 °F 77% 29.93 in 10.0 mi NW 4.6 mph - N/A   Clear
4:15 PM 29.3 °F 24.3 °F 23.4 °F 78% 29.94 in 10.0 mi NW 4.6 mph - N/A   Clear
4:35 PM 24.4 °F 17.5 °F 20.1 °F 84% 29.94 in 10.0 mi NNW 5.8 mph - N/A   Clear
4:55 PM 28.9 °F 20.4 °F 23.4 °F 80% 29.95 in 10.0 mi NW 9.2 mph - N/A   Clear
5:15 PM 28.4 °F 19.1 °F 23.5 °F 82% 29.95 in 10.0 mi NNW 10.4 mph - N/A   Clear
5:35 PM 28.6 °F 19.3 °F 23.4 °F 81% 29.97 in 10.0 mi NNW 10.4 mph - N/A   Clear
5:55 PM 25.7 °F 16.4 °F 21.9 °F 86% 29.97 in 10.0 mi North 9.2 mph - N/A   Clear
6:15 PM 24.1 °F 14.4 °F 20.8 °F 87% 29.98 in 10.0 mi North 9.2 mph - N/A   Clear
6:35 PM 26.4 °F 13.6 °F 22.6 °F 86% 29.98 in 10.0 mi NNW 17.3 mph - N/A   Clear
6:55 PM 25.7 °F 14.0 °F 21.6 °F 84% 29.99 in 10.0 mi NNW 13.8 mph - N/A   Clear
7:15 PM 24.8 °F 12.9 °F 21.0 °F 86% 29.99 in 10.0 mi NNW 13.8 mph - N/A   Clear
7:35 PM 23.9 °F 11.7 °F 20.1 °F 85% 29.99 in 10.0 mi NNW 13.8 mph - N/A   Clear
7:55 PM 23.4 °F 10.6 °F 19.4 °F 85% 30.00 in 10.0 mi NNW 15.0 mph - N/A   Clear
8:15 PM 22.6 °F 11.3 °F 18.9 °F 85% 30.00 in 10.0 mi NNW 11.5 mph - N/A   Clear
8:35 PM 22.1 °F 12.0 °F 18.5 °F 86% 30.02 in 10.0 mi NNW 9.2 mph - N/A   Clear
8:55 PM 21.6 °F 10.6 °F 18.0 °F 86% 30.02 in 10.0 mi NNW 10.4 mph - N/A   Clear
9:15 PM 20.3 °F 7.2 °F 17.2 °F 88% 30.02 in 7.0 mi NNW 13.8 mph - N/A   Clear
9:35 PM 20.7 °F 9.5 °F 17.6 °F 88% 30.02 in 7.0 mi NNW 10.4 mph - N/A   Clear
9:55 PM 19.8 °F 8.3 °F 16.5 °F 87% 30.02 in 7.0 mi NNW 10.4 mph - N/A   Clear
10:15 PM 19.4 °F 7.2 °F 16.3 °F 88% 30.02 in 7.0 mi NNW 11.5 mph - N/A   Clear
10:35 PM 19.2 °F 8.4 °F 16.0 °F 87% 30.02 in 7.0 mi NNW 9.2 mph - N/A   Clear
10:55 PM 18.3 °F 8.2 °F 14.9 °F 86% 30.03 in 7.0 mi NNW 8.1 mph - N/A   Clear
11:15 PM 18.1 °F 7.9 °F 14.9 °F 87% 30.03 in 7.0 mi NNW 8.1 mph - N/A   Clear
11:35 PM 18.1 °F 7.9 °F 14.9 °F 87% 30.03 in 7.0 mi NNW 8.1 mph - N/A   Clear
11:55 PM 15.8 °F 4.2 °F 12.6 °F 87% 30.02 in 7.0 mi NNW 9.2 mph - N/A   Clear